STARLINK-1142, 45093

Orbit data source: Space-Track

STARLINK-1142, 45093 is a payload satellite owned by SpaceX/Seattle (US) in LEO that was launched on Wed, 29 Jan 2020 UTC via an FALCON 9 launch vehicle from the Air Force Eastern Test Range (AFETR). Payload-class satellites include a variety of spacecraft equipped with specific instruments for various scientific and technological missions. These include communications satellites like Starlink; space stations such as the ISS; scientific satellites like the Hubble; Earth observation satellites from companies like Planet Labs, Umbra, and HawkEye 360; GPS; miniature CubeSats for education and research; and military/defense satellites.

Loading next visibility...
Identifier
45093, 2020-006BB
Orbit
LEO
Last TLE update
14 hours ago
Origin
Manufacturer
SpaceX/Seattle
Mission
Partially operational Commercial Communications
Bus & Motor
STARLINK, Unknown motor
Mass
260 kg wet, ~248 kg dry
Launch date (UTC)
2020-01-29 (5 years ago)
Launch vehicle
FALCON 9
Launch site
Air Force Eastern Test Range (AFETR)
Object type
Payload
Rocket body
Debris
Shape & HBR
Box + 1 Pan, 4.4 m
Radar Cross Section
13.562 m², Large (>1 m²)

Expand to show TLE details & history

TLE from 14 hours ago
0 STARLINK-1142
1 45093U 20006BB  25199.37135311  .00044124  00000-0  10470-2 0  9998
2 45093  53.0436 183.8595 0003446  54.7538 305.3788 15.41296384302194
Epoch: 2025-07-18T08:54Z
TLE epoch observation values (Epoch: 2025-07-18T08:54:44.908Z)
Latitude
-0.00005°
Longitude
113.74858°
Altitude
441.813 km
Speed
7.649 km/s
True Right ascension
12h 15m 26s
True Declination
0° 00' 00"
Sunlit
Object was in daylight at epoch
Visualization orbit readout
Latitude
47.2858°
Longitude
-123.248°
Altitude
446.027 km
Speed
7.651 km/s
Apparent Right ascension
22h 23m 07s
Apparent Declination
6° 14' 30"
Sunlit
Object is in full shadow
Visualization observer readout
Local Sidereal Time
12:12:05
Azimuth
34.973° NE
Elevation
-37.453°
Doppler factor
1
Orbital elements
Apogee altitude
444.909 km
Perigee altitude
440.208 km
Semi-major axis
6,820.696 km
Eccentricity
0.00034
Inclination
53.0436°
RAAN
183.8595°
Arg. of periapsis
54.7538°
True anomaly
305.3466°
Mean anomaly
305.3788°
Eccentric anomaly
305.3627°
Mean motion
3.85301 °/min
Orbital period
93.43 mins
BSTAR
0.001047
Loading maneuver chart data...
Loading SW <> Apogee altitude chart data...
|